Time,TemperatureF,DewpointF,PressureIn,WindDirection,WindDirectionDegrees,WindSpeedMPH,WindSpeedGustMPH,Humidity,HourlyPrecipIn,Conditions,Clouds,dailyrainin,SoftwareType,DateUTC
2013-05-19 00:03:00,61.0,48.0,-100.00,ESE,104,0.0,6.0,67,0.00,,,-99.99,,2013-05-19 04:03:00,
2013-05-19 00:13:00,60.0,48.0,-100.00,ESE,104,0.0,6.0,66,0.00,,,-99.99,,2013-05-19 04:13:00,
2013-05-19 00:23:00,60.0,48.0,-100.00,ESE,107,1.0,6.0,66,0.00,,,-99.99,,2013-05-19 04:23:00,
2013-05-19 00:33:00,61.0,48.0,-100.00,East,84,1.0,1.0,67,0.00,,,-99.99,,2013-05-19 04:33:00,
2013-05-19 00:42:00,61.0,48.0,-100.00,SE,128,1.0,1.0,68,0.00,,,-99.99,,2013-05-19 04:42:00,
2013-05-19 00:52:00,61.0,48.0,-100.00,South,169,1.0,1.0,68,0.00,,,-99.99,,2013-05-19 04:52:00,
2013-05-19 01:02:00,61.0,50.0,-100.00,SE,144,1.0,1.0,68,0.00,,,-99.99,,2013-05-19 05:02:00,
2013-05-19 01:12:00,61.0,50.0,-100.00,East,94,0.0,1.0,69,0.00,,,-99.99,,2013-05-19 05:12:00,
2013-05-19 01:22:00,62.0,52.0,-100.00,ESE,114,1.0,1.0,72,0.00,,,-99.99,,2013-05-19 05:22:00,
2013-05-19 01:32:00,64.0,54.0,-100.00,SSE,160,2.0,2.0,72,0.00,,,-99.99,,2013-05-19 05:32:00,
2013-05-19 01:42:00,65.0,54.0,-100.00,SSE,165,2.0,2.0,72,0.00,,,-99.99,,2013-05-19 05:42:00,
2013-05-19 01:51:00,65.0,55.0,-100.00,SSE,153,2.0,2.0,73,0.00,,,-99.99,,2013-05-19 05:51:00,
2013-05-19 02:02:00,64.0,55.0,-100.00,SE,134,4.0,4.0,75,0.00,,,-99.99,,2013-05-19 06:02:00,
2013-05-19 02:12:00,64.0,55.0,-100.00,SSE,148,3.0,4.0,76,0.00,,,-99.99,,2013-05-19 06:12:00,
2013-05-19 02:21:00,64.0,55.0,-100.00,ESE,122,4.0,4.0,76,0.00,,,-99.99,,2013-05-19 06:21:00,
2013-05-19 02:32:00,64.0,55.0,-100.00,ESE,112,2.0,4.0,77,0.00,,,-99.99,,2013-05-19 06:32:00,
2013-05-19 02:42:00,64.0,55.0,-100.00,SSE,168,3.0,4.0,77,0.00,,,-99.99,,2013-05-19 06:42:00,
2013-05-19 02:52:00,64.0,55.0,-100.00,SSE,148,2.0,4.0,77,0.00,,,-99.99,,2013-05-19 06:52:00,
2013-05-19 03:01:00,64.0,57.0,-100.00,ESE,112,2.0,4.0,78,0.00,,,-99.99,,2013-05-19 07:01:00,
2013-05-19 03:11:00,64.0,57.0,-100.00,SSE,152,2.0,4.0,80,0.00,,,-99.99,,2013-05-19 07:11:00,
2013-05-19 03:22:00,63.0,55.0,-100.00,South,186,2.0,4.0,80,0.00,,,-99.99,,2013-05-19 07:22:00,
2013-05-19 03:32:00,64.0,57.0,-100.00,SE,138,3.0,4.0,80,0.00,,,-99.99,,2013-05-19 07:32:00,
2013-05-19 03:42:00,64.0,57.0,-100.00,ESE,121,2.0,4.0,80,0.00,,,-99.99,,2013-05-19 07:42:00,
2013-05-19 03:52:00,63.0,55.0,-100.00,ESE,122,2.0,4.0,80,0.00,,,-99.99,,2013-05-19 07:52:00,
2013-05-19 04:02:00,63.0,55.0,-100.00,SE,135,4.0,4.0,81,0.00,,,-99.99,,2013-05-19 08:02:00,
2013-05-19 04:12:00,63.0,55.0,-100.00,ESE,114,4.0,4.0,81,0.00,,,-99.99,,2013-05-19 08:12:00,
2013-05-19 04:22:00,63.0,55.0,-100.00,SE,138,3.0,4.0,82,0.00,,,-99.99,,2013-05-19 08:22:00,
2013-05-19 04:32:00,63.0,55.0,-100.00,ESE,121,4.0,4.0,82,0.00,,,-99.99,,2013-05-19 08:32:00,
2013-05-19 04:42:00,62.0,55.0,-100.00,SE,125,4.0,4.0,82,0.00,,,-99.99,,2013-05-19 08:42:00,
2013-05-19 04:52:00,62.0,55.0,-100.00,ESE,122,3.0,4.0,82,0.00,,,-99.99,,2013-05-19 08:52:00,
2013-05-19 05:02:00,62.0,55.0,-100.00,South,176,4.0,4.0,82,0.00,,,-99.99,,2013-05-19 09:02:00,
2013-05-19 05:12:00,62.0,55.0,-100.00,SE,132,2.0,4.0,82,0.00,,,-99.99,,2013-05-19 09:12:00,
2013-05-19 05:21:00,63.0,55.0,-100.00,SSE,168,3.0,4.0,82,0.00,,,-99.99,,2013-05-19 09:21:00,
2013-05-19 05:32:00,63.0,55.0,-100.00,South,179,4.0,4.0,82,0.00,,,-99.99,,2013-05-19 09:32:00,
2013-05-19 05:43:00,62.0,55.0,-100.00,SE,138,2.0,4.0,82,0.00,,,-99.99,,2013-05-19 09:43:00,
2013-05-19 05:53:00,62.0,55.0,-100.00,SE,136,4.0,4.0,82,0.00,,,-99.99,,2013-05-19 09:53:00,
2013-05-19 06:03:00,62.0,55.0,-100.00,SSE,160,5.0,6.0,82,0.00,,,-99.99,,2013-05-19 10:03:00,
2013-05-19 06:12:00,63.0,55.0,-100.00,SSW,200,4.0,6.0,82,0.00,,,-99.99,,2013-05-19 10:12:00,
2013-05-19 06:23:00,62.0,55.0,-100.00,SSE,149,3.0,6.0,82,0.00,,,-99.99,,2013-05-19 10:23:00,
2013-05-19 06:33:00,62.0,55.0,-100.00,SSE,168,4.0,6.0,82,0.00,,,-99.99,,2013-05-19 10:33:00,
2013-05-19 06:42:00,62.0,55.0,-100.00,SSE,153,3.0,6.0,84,0.00,,,-99.99,,2013-05-19 10:42:00,
2013-05-19 06:52:00,62.0,55.0,-100.00,South,190,4.0,6.0,84,0.00,,,-99.99,,2013-05-19 10:52:00,
2013-05-19 07:02:00,62.0,55.0,-100.00,SSE,156,4.0,6.0,84,0.00,,,-99.99,,2013-05-19 11:02:00,
2013-05-19 07:12:00,62.0,55.0,-100.00,South,189,3.0,6.0,84,0.00,,,-99.99,,2013-05-19 11:12:00,
2013-05-19 07:22:00,62.0,55.0,-100.00,SSW,201,4.0,6.0,84,0.00,,,-99.99,,2013-05-19 11:22:00,
2013-05-19 07:32:00,62.0,55.0,-100.00,ESE,120,4.0,6.0,82,0.00,,,-99.99,,2013-05-19 11:32:00,
2013-05-19 07:42:00,63.0,55.0,-100.00,SE,125,4.0,6.0,82,0.00,,,-99.99,,2013-05-19 11:42:00,
2013-05-19 07:52:00,63.0,57.0,-100.00,SE,146,4.0,6.0,81,0.00,,,-99.99,,2013-05-19 11:52:00,
2013-05-19 08:01:00,63.0,57.0,-100.00,ESE,122,7.0,10.0,81,0.00,,,-99.99,,2013-05-19 12:01:00,
2013-05-19 08:12:00,64.0,57.0,-100.00,SSE,160,6.0,10.0,80,0.00,,,-99.99,,2013-05-19 12:12:00,
2013-05-19 08:22:00,64.0,57.0,-100.00,SE,135,5.0,10.0,80,0.00,,,-99.99,,2013-05-19 12:22:00,
2013-05-19 08:32:00,63.0,55.0,-100.00,West,264,4.0,10.0,80,0.00,,,-99.99,,2013-05-19 12:32:00,
2013-05-19 08:42:00,65.0,57.0,-100.00,SE,142,4.0,10.0,80,0.00,,,-99.99,,2013-05-19 12:42:00,
2013-05-19 08:52:00,65.0,57.0,-100.00,ESE,122,4.0,10.0,80,0.00,,,-99.99,,2013-05-19 12:52:00,
2013-05-19 09:01:00,64.0,55.0,-100.00,SSE,165,3.0,10.0,78,0.00,,,-99.99,,2013-05-19 13:01:00,
2013-05-19 09:11:00,65.0,57.0,-100.00,SSW,194,3.0,10.0,78,0.00,,,-99.99,,2013-05-19 13:11:00,
2013-05-19 09:21:00,65.0,57.0,-100.00,ESE,121,5.0,10.0,78,0.00,,,-99.99,,2013-05-19 13:21:00,
2013-05-19 09:32:00,66.0,57.0,-100.00,South,183,3.0,10.0,77,0.00,,,-99.99,,2013-05-19 13:32:00,
2013-05-19 09:42:00,67.0,57.0,-100.00,South,170,4.0,10.0,75,0.00,,,-99.99,,2013-05-19 13:42:00,
2013-05-19 09:52:00,67.0,57.0,-100.00,SSE,153,4.0,10.0,73,0.00,,,-99.99,,2013-05-19 13:52:00,
2013-05-19 10:02:00,68.0,59.0,-100.00,South,170,5.0,10.0,73,0.00,,,-99.99,,2013-05-19 14:02:00,
2013-05-19 10:11:00,68.0,57.0,-100.00,SE,142,6.0,10.0,72,0.00,,,-99.99,,2013-05-19 14:11:00,
2013-05-19 10:21:00,70.0,59.0,-100.00,SSE,159,6.0,10.0,69,0.00,,,-99.99,,2013-05-19 14:21:00,
2013-05-19 10:32:00,71.0,59.0,-100.00,SE,125,4.0,10.0,69,0.00,,,-99.99,,2013-05-19 14:32:00,
2013-05-19 10:42:00,71.0,59.0,-100.00,South,189,4.0,10.0,68,0.00,,,-99.99,,2013-05-19 14:42:00,
2013-05-19 10:52:00,73.0,61.0,-100.00,East,98,4.0,10.0,68,0.00,,,-99.99,,2013-05-19 14:52:00,
2013-05-19 11:02:00,73.0,61.0,-100.00,SSE,168,4.0,10.0,66,0.00,,,-99.99,,2013-05-19 15:02:00,
2013-05-19 11:12:00,74.0,59.0,-100.00,South,170,6.0,10.0,63,0.00,,,-99.99,,2013-05-19 15:12:00,
2013-05-19 11:22:00,75.0,61.0,-100.00,South,169,6.0,10.0,63,0.00,,,-99.99,,2013-05-19 15:22:00,
2013-05-19 11:33:00,75.0,61.0,-100.00,SSE,152,3.0,10.0,63,0.00,,,-99.99,,2013-05-19 15:33:00,
2013-05-19 11:43:00,76.0,61.0,-100.00,SSW,193,4.0,10.0,63,0.00,,,-99.99,,2013-05-19 15:43:00,
2013-05-19 11:53:00,76.0,61.0,-100.00,SSE,165,5.0,10.0,62,0.00,,,-99.99,,2013-05-19 15:53:00,
2013-05-19 12:03:00,76.0,59.0,-100.00,South,170,5.0,10.0,60,0.00,,,-99.99,,2013-05-19 16:03:00,
2013-05-19 12:12:00,76.0,61.0,-100.00,SW,224,6.0,10.0,62,0.00,,,-99.99,,2013-05-19 16:12:00,
2013-05-19 12:23:00,77.0,61.0,-100.00,SSE,158,3.0,10.0,60,0.00,,,-99.99,,2013-05-19 16:23:00,
2013-05-19 12:32:00,78.0,61.0,-100.00,SW,217,3.0,10.0,59,0.00,,,-99.99,,2013-05-19 16:32:00,
2013-05-19 12:42:00,78.0,61.0,-100.00,SW,217,1.0,10.0,59,0.00,,,-99.99,,2013-05-19 16:42:00,
2013-05-19 12:52:00,79.0,61.0,-100.00,SSE,148,3.0,10.0,56,0.00,,,-99.99,,2013-05-19 16:52:00,
2013-05-19 13:02:00,80.0,61.0,-100.00,SW,218,3.0,10.0,56,0.00,,,-99.99,,2013-05-19 17:02:00,
2013-05-19 13:12:00,79.0,61.0,-100.00,ENE,74,4.0,10.0,55,0.00,,,-99.99,,2013-05-19 17:12:00,
2013-05-19 13:22:00,80.0,61.0,-100.00,SSW,193,3.0,10.0,55,0.00,,,-99.99,,2013-05-19 17:22:00,
2013-05-19 13:32:00,79.0,59.0,-100.00,SSW,199,2.0,10.0,53,0.00,,,-99.99,,2013-05-19 17:32:00,
2013-05-19 13:42:00,80.0,61.0,-100.00,SE,145,2.0,10.0,54,0.00,,,-99.99,,2013-05-19 17:42:00,
2013-05-19 13:52:00,82.0,61.0,-100.00,West,261,2.0,10.0,50,0.00,,,-99.99,,2013-05-19 17:52:00,
2013-05-19 14:02:00,81.0,59.0,-100.00,East,96,2.0,10.0,50,0.00,,,-99.99,,2013-05-19 18:02:00,
2013-05-19 14:12:00,82.0,61.0,-100.00,SSE,152,2.0,10.0,50,0.00,,,-99.99,,2013-05-19 18:12:00,
2013-05-19 14:22:00,82.0,59.0,-100.00,SW,235,2.0,10.0,47,0.00,,,-99.99,,2013-05-19 18:22:00,
2013-05-19 14:32:00,81.0,59.0,-100.00,SE,138,2.0,10.0,49,0.00,,,-99.99,,2013-05-19 18:32:00,
2013-05-19 14:43:00,82.0,59.0,-100.00,SSE,149,3.0,10.0,47,0.00,,,-99.99,,2013-05-19 18:43:00,
2013-05-19 14:52:00,81.0,59.0,-100.00,West,259,2.0,10.0,50,0.00,,,-99.99,,2013-05-19 18:52:00,
2013-05-19 15:01:00,83.0,59.0,-100.00,South,169,2.0,10.0,47,0.00,,,-99.99,,2013-05-19 19:01:00,
2013-05-19 15:11:00,82.0,59.0,-100.00,SE,145,2.0,10.0,47,0.00,,,-99.99,,2013-05-19 19:11:00,
2013-05-19 15:22:00,83.0,61.0,-100.00,East,86,3.0,10.0,49,0.00,,,-99.99,,2013-05-19 19:22:00,
2013-05-19 15:32:00,83.0,59.0,-100.00,East,94,1.0,10.0,47,0.00,,,-99.99,,2013-05-19 19:32:00,
2013-05-19 15:42:00,83.0,59.0,-100.00,WSW,256,2.0,10.0,46,0.00,,,-99.99,,2013-05-19 19:42:00,
2013-05-19 15:52:00,83.0,59.0,-100.00,South,186,2.0,10.0,46,0.00,,,-99.99,,2013-05-19 19:52:00,
2013-05-19 16:02:00,83.0,59.0,-100.00,SSE,155,2.0,10.0,46,0.00,,,-99.99,,2013-05-19 20:02:00,
2013-05-19 16:11:00,83.0,59.0,-100.00,SE,144,2.0,10.0,47,0.00,,,-99.99,,2013-05-19 20:11:00,
2013-05-19 16:22:00,82.0,59.0,-100.00,WSW,258,2.0,10.0,47,0.00,,,-99.99,,2013-05-19 20:22:00,
2013-05-19 16:32:00,82.0,59.0,-100.00,SSW,199,4.0,10.0,46,0.00,,,-99.99,,2013-05-19 20:32:00,
2013-05-19 16:42:00,83.0,59.0,-100.00,SW,214,2.0,10.0,46,0.00,,,-99.99,,2013-05-19 20:42:00,
2013-05-19 16:52:00,81.0,57.0,-100.00,West,259,4.0,10.0,47,0.00,,,-99.99,,2013-05-19 20:52:00,
2013-05-19 17:02:00,82.0,59.0,-100.00,West,262,4.0,10.0,49,0.00,,,-99.99,,2013-05-19 21:02:00,
2013-05-19 17:11:00,84.0,59.0,-100.00,SE,124,2.0,10.0,45,0.00,,,-99.99,,2013-05-19 21:11:00,
2013-05-19 17:22:00,83.0,59.0,-100.00,South,173,2.0,10.0,46,0.00,,,-99.99,,2013-05-19 21:22:00,
2013-05-19 17:32:00,83.0,59.0,-100.00,SSW,211,1.0,10.0,46,0.00,,,-99.99,,2013-05-19 21:32:00,
2013-05-19 17:43:00,82.0,59.0,-100.00,South,183,2.0,10.0,49,0.00,,,-99.99,,2013-05-19 21:43:00,
2013-05-19 17:53:00,84.0,59.0,-100.00,SE,139,1.0,10.0,45,0.00,,,-99.99,,2013-05-19 21:53:00,
2013-05-19 18:03:00,83.0,59.0,-100.00,SSW,207,2.0,10.0,46,0.00,,,-99.99,,2013-05-19 22:03:00,
2013-05-19 18:12:00,83.0,59.0,-100.00,SE,144,2.0,10.0,46,0.00,,,-99.99,,2013-05-19 22:12:00,
2013-05-19 18:23:00,82.0,59.0,-100.00,South,184,2.0,10.0,47,0.00,,,-99.99,,2013-05-19 22:23:00,
2013-05-19 18:33:00,83.0,59.0,-100.00,SSW,208,2.0,10.0,47,0.00,,,-99.99,,2013-05-19 22:33:00,
2013-05-19 18:42:00,82.0,59.0,-100.00,ESE,115,1.0,10.0,47,0.00,,,-99.99,,2013-05-19 22:42:00,
2013-05-19 18:53:00,83.0,59.0,-100.00,SSW,206,1.0,10.0,47,0.00,,,-99.99,,2013-05-19 22:53:00,
2013-05-19 19:03:00,82.0,61.0,-100.00,South,177,1.0,10.0,50,0.00,,,-99.99,,2013-05-19 23:03:00,
2013-05-19 19:12:00,82.0,61.0,-100.00,East,96,1.0,10.0,49,0.00,,,-99.99,,2013-05-19 23:12:00,
2013-05-19 19:22:00,82.0,61.0,-100.00,SSW,197,2.0,10.0,49,0.00,,,-99.99,,2013-05-19 23:22:00,
2013-05-19 19:32:00,81.0,59.0,-100.00,SE,138,1.0,10.0,49,0.00,,,-99.99,,2013-05-19 23:32:00,
2013-05-19 19:42:00,80.0,59.0,-100.00,SE,128,2.0,10.0,50,0.00,,,-99.99,,2013-05-19 23:42:00,
2013-05-19 19:52:00,80.0,61.0,-100.00,SW,228,2.0,10.0,53,0.00,,,-99.99,,2013-05-19 23:52:00,
2013-05-19 20:02:00,80.0,61.0,-100.00,WSW,247,2.0,10.0,53,0.00,,,-99.99,,2013-05-20 00:02:00,
2013-05-19 20:12:00,79.0,61.0,-100.00,West,264,1.0,10.0,54,0.00,,,-99.99,,2013-05-20 00:12:00,
2013-05-19 20:22:00,80.0,61.0,-100.00,SSE,168,2.0,10.0,55,0.00,,,-99.99,,2013-05-20 00:22:00,
2013-05-19 20:32:00,78.0,59.0,-100.00,South,169,2.0,10.0,55,0.00,,,-99.99,,2013-05-20 00:32:00,
2013-05-19 20:42:00,78.0,59.0,-100.00,SSW,211,2.0,10.0,56,0.00,,,-99.99,,2013-05-20 00:42:00,
2013-05-19 20:52:00,77.0,61.0,-100.00,SW,216,1.0,10.0,59,0.00,,,-99.99,,2013-05-20 00:52:00,
2013-05-19 21:01:00,76.0,61.0,-100.00,SE,146,1.0,10.0,59,0.00,,,-99.99,,2013-05-20 01:01:00,
2013-05-19 21:11:00,75.0,59.0,-100.00,SE,139,1.0,10.0,60,0.00,,,-99.99,,2013-05-20 01:11:00,
2013-05-19 21:22:00,75.0,61.0,-100.00,ESE,121,1.0,10.0,62,0.00,,,-99.99,,2013-05-20 01:22:00,
2013-05-19 21:32:00,75.0,61.0,-100.00,South,177,1.0,10.0,63,0.00,,,-99.99,,2013-05-20 01:32:00,
2013-05-19 21:42:00,75.0,61.0,-100.00,South,175,2.0,10.0,64,0.00,,,-99.99,,2013-05-20 01:42:00,
2013-05-19 21:52:00,74.0,61.0,-100.00,SSW,193,1.0,10.0,64,0.00,,,-99.99,,2013-05-20 01:52:00,
2013-05-19 22:02:00,74.0,61.0,-100.00,SSW,193,1.0,10.0,64,0.00,,,-99.99,,2013-05-20 02:02:00,
2013-05-19 22:12:00,74.0,59.0,-100.00,SSE,152,3.0,10.0,64,0.00,,,-99.99,,2013-05-20 02:12:00,
2013-05-19 22:21:00,74.0,61.0,-100.00,South,170,2.0,10.0,66,0.00,,,-99.99,,2013-05-20 02:21:00,
2013-05-19 22:32:00,74.0,61.0,-100.00,SE,141,3.0,10.0,66,0.00,,,-99.99,,2013-05-20 02:32:00,
2013-05-19 22:42:00,73.0,61.0,-100.00,SW,218,2.0,10.0,66,0.00,,,-99.99,,2013-05-20 02:42:00,
2013-05-19 22:51:00,73.0,61.0,-100.00,SSW,200,2.0,10.0,67,0.00,,,-99.99,,2013-05-20 02:51:00,
2013-05-19 23:02:00,73.0,61.0,-100.00,ESE,118,2.0,10.0,67,0.00,,,-99.99,,2013-05-20 03:02:00,
2013-05-19 23:11:00,73.0,61.0,-100.00,SSE,149,2.0,10.0,68,0.00,,,-99.99,,2013-05-20 03:11:00,
2013-05-19 23:21:00,72.0,61.0,-100.00,SSE,152,2.0,10.0,68,0.00,,,-99.99,,2013-05-20 03:21:00,
2013-05-19 23:33:00,72.0,59.0,-100.00,South,190,2.0,10.0,68,0.00,,,-99.99,,2013-05-20 03:33:00,
2013-05-19 23:43:00,72.0,61.0,-100.00,SE,128,2.0,10.0,69,0.00,,,-99.99,,2013-05-20 03:43:00,
2013-05-19 23:52:00,71.0,59.0,-100.00,SSE,168,2.0,10.0,69,0.00,,,-99.99,,2013-05-20 03:52:00,